Weather History for Liberal, KS

Change the Weather History Date:

Monday, January 20, 2014

  Actual Average Record
Temperature  
Mean Temperature 40 °F -  
Max Temperature 55 °F 47 °F 79 °F (1986)
Min Temperature 26 °F 21 °F -5 °F (1984)
Degree Days  
Heating Degree Days 24    
Moisture  
Dew Point 14 °F    
Average Humidity 39    
Maximum Humidity 55    
Minimum Humidity 23    
Precipitation  
Precipitation 0.00 in - - ()
Sea Level Pressure  
Sea Level Pressure 30.14 in    
Wind  
Wind Speed 13 mph (NNW)    
Max Wind Speed 31 mph    
Max Gust Speed 34 mph    
Visibility 10 miles    
Events      
Averages and records for this station are not official NWS values.
T = Trace of Precipitation, MM = Missing Value Source: NWS Daily Summary

Daily Weather History Graph

Daily Weather History Graph

Search for Another Location

Airport:

Trip Planner

Search our weather history database for the weather conditions in past years. The results will help you decide how hot, cold, wet, or windy it might be!

Date:

Astronomy

Jan. 20, 2014 Rise Set
Actual Time 7:54 AM CST 5:55 PM CST
Civil Twilight 7:26 AM CST 6:24 PM CST
Nautical Twilight 6:54 AM CST 6:55 PM CST
Astronomical Twilight 6:23 AM CST 7:26 PM CST
Moon 10:25 PM CST (1/20) 10:01 AM CST (1/20)
Length of Visible Light 10h 57m
Length of Day
10h 01m
Waning Gibbous, 82% of the Moon is Illuminated
Jan 20
Waning Gibbous
Jan 23
Last Quarter
Jan 30
New
Feb 6
First Quarter
Feb 14
Full

Hourly Weather History & Observations

Time (CST) Temp. Windchill Dew Point Humidity Pressure Visibility Wind Dir Wind Speed Gust Speed Precip Events Conditions
12:15 AM 30.2 °F 23.4 °F 12.2 °F 47% 29.92 in 10.0 mi WNW 6.9 mph - N/A   Clear
12:35 AM 30.2 °F 23.4 °F 12.2 °F 47% 29.91 in 10.0 mi West 6.9 mph - N/A   Clear
12:55 AM 30.2 °F 22.6 °F 14.0 °F 51% 29.90 in 10.0 mi WNW 8.1 mph - N/A   Clear
1:15 AM 28.4 °F 21.2 °F 12.2 °F 51% 29.90 in 10.0 mi WNW 6.9 mph - N/A   Clear
1:35 AM 30.2 °F 22.6 °F 12.2 °F 47% 29.90 in 10.0 mi West 8.1 mph - N/A   Clear
1:55 AM 30.2 °F 22.6 °F 14.0 °F 51% 29.90 in 10.0 mi WNW 8.1 mph - N/A   Clear
2:15 AM 30.2 °F 22.6 °F 14.0 °F 51% 29.90 in 10.0 mi WNW 8.1 mph - N/A   Clear
2:35 AM 30.2 °F 23.4 °F 14.0 °F 51% 29.91 in 10.0 mi WNW 6.9 mph - N/A   Clear
2:55 AM 28.4 °F 21.2 °F 12.2 °F 51% 29.92 in 10.0 mi NNW 6.9 mph - N/A   Clear
3:15 AM 28.4 °F 20.4 °F 14.0 °F 55% 29.92 in 10.0 mi NW 8.1 mph - N/A   Clear
3:35 AM 28.4 °F 19.7 °F 12.2 °F 51% 29.93 in 10.0 mi NW 9.2 mph - N/A   Clear
3:55 AM 28.4 °F 20.4 °F 12.2 °F 51% 29.93 in 10.0 mi NW 8.1 mph - N/A   Clear
4:15 AM 28.4 °F 19.1 °F 12.2 °F 51% 29.93 in 10.0 mi WNW 10.4 mph - N/A   Clear
4:35 AM 28.4 °F 19.1 °F 12.2 °F 51% 29.93 in 10.0 mi WNW 10.4 mph - N/A   Clear
4:55 AM 28.4 °F 18.5 °F 12.2 °F 51% 29.94 in 10.0 mi WNW 11.5 mph - N/A   Clear
5:15 AM 30.2 °F 20.8 °F 12.2 °F 47% 29.94 in 10.0 mi WNW 11.5 mph - N/A   Clear
5:35 AM 30.2 °F 19.3 °F 12.2 °F 47% 29.95 in 10.0 mi NW 15.0 mph - N/A   Clear
5:55 AM 30.2 °F 20.8 °F 10.4 °F 44% 29.95 in 10.0 mi NW 11.5 mph - N/A   Clear
6:15 AM 30.2 °F 20.8 °F 12.2 °F 47% 29.96 in 10.0 mi NW 11.5 mph - N/A   Clear
6:35 AM 28.4 °F 18.0 °F 10.4 °F 47% 29.97 in 10.0 mi NW 12.7 mph - N/A   Clear
6:55 AM 30.2 °F 19.8 °F 10.4 °F 44% 29.97 in 10.0 mi NW 13.8 mph - N/A   Clear
7:15 AM 30.2 °F 19.8 °F 10.4 °F 44% 29.98 in 10.0 mi NNW 13.8 mph - N/A   Clear
7:35 AM 30.2 °F 21.3 °F 10.4 °F 44% 29.99 in 10.0 mi NW 10.4 mph - N/A   Clear
7:55 AM 28.4 °F 17.0 °F 12.2 °F 51% 30.00 in 10.0 mi NW 15.0 mph - N/A   Clear
8:15 AM 32.0 °F 22.5 °F 12.2 °F 44% 30.01 in 10.0 mi NW 12.7 mph - N/A   Clear
8:35 AM 35.6 °F 25.2 °F 14.0 °F 41% 30.02 in 10.0 mi NW 18.4 mph - N/A   Clear
8:55 AM 37.4 °F 27.8 °F 15.8 °F 41% 30.04 in 10.0 mi NNW 17.3 mph - N/A   Clear
9:15 AM 39.2 °F 29.3 °F 17.6 °F 42% 30.05 in 10.0 mi NNW 20.7 mph - N/A   Clear
9:35 AM 44.6 °F 35.7 °F 19.4 °F 37% 30.06 in 10.0 mi North 24.2 mph 31.1 mph N/A   Clear
9:55 AM 46.4 °F 38.1 °F 21.2 °F 37% 30.08 in 10.0 mi North 24.2 mph 34.5 mph N/A   Clear
10:15 AM 46.4 °F 37.2 °F 19.4 °F 34% 30.10 in 10.0 mi North 29.9 mph 33.4 mph N/A   Clear
10:35 AM 48.2 °F - 19.4 °F 32% 30.12 in 10.0 mi North 27.6 mph 34.5 mph N/A   Clear
10:55 AM 48.2 °F - 19.4 °F 32% 30.13 in 10.0 mi NNE 26.5 mph 31.1 mph N/A   Clear
11:15 AM 48.2 °F - 19.4 °F 32% 30.15 in 10.0 mi NNE 28.8 mph - N/A   Clear
11:35 AM 48.2 °F - 19.4 °F 32% 30.16 in 10.0 mi NNE 25.3 mph 29.9 mph N/A   Clear
11:55 AM 50.0 °F - 19.4 °F 30% 30.17 in 10.0 mi NNE 20.7 mph 28.8 mph N/A   Clear
12:15 PM 51.8 °F - 19.4 °F 28% 30.17 in 10.0 mi NNE 25.3 mph 31.1 mph N/A   Clear
12:35 PM 51.8 °F - 19.4 °F 28% 30.18 in 10.0 mi NNE 31.1 mph 34.5 mph N/A   Clear
12:55 PM 51.8 °F - 19.4 °F 28% 30.19 in 10.0 mi North 25.3 mph 32.2 mph N/A   Clear
1:15 PM 51.8 °F - 17.6 °F 26% 30.19 in 10.0 mi North 25.3 mph 31.1 mph N/A   Clear
1:35 PM 51.8 °F - 17.6 °F 26% 30.19 in 10.0 mi North 23.0 mph 31.1 mph N/A   Clear
1:55 PM 51.8 °F - 17.6 °F 26% 30.19 in 10.0 mi North 23.0 mph 33.4 mph N/A   Clear
2:15 PM 53.6 °F - 19.4 °F 26% 30.19 in 10.0 mi North 26.5 mph 32.2 mph N/A   Clear
2:35 PM 53.6 °F - 17.6 °F 24% 30.19 in 10.0 mi NNE 26.5 mph - N/A   Clear
2:55 PM 55.4 °F - 17.6 °F 23% 30.20 in 10.0 mi North 24.2 mph 27.6 mph N/A   Clear
3:15 PM 55.4 °F - 17.6 °F 23% 30.21 in 10.0 mi North 24.2 mph 32.2 mph N/A   Clear
3:35 PM 55.4 °F - 17.6 °F 23% 30.21 in 10.0 mi North 21.9 mph 27.6 mph N/A   Clear
3:55 PM 55.4 °F - 17.6 °F 23% 30.22 in 10.0 mi North 25.3 mph 32.2 mph N/A   Clear
4:15 PM 55.4 °F - 17.6 °F 23% 30.23 in 10.0 mi North 25.3 mph 32.2 mph N/A   Clear
4:35 PM 53.6 °F - 17.6 °F 24% 30.24 in 10.0 mi North 25.3 mph 33.4 mph N/A   Clear
4:55 PM 53.6 °F - 17.6 °F 24% 30.25 in 10.0 mi North 20.7 mph - N/A   Clear
5:15 PM 53.6 °F - 17.6 °F 24% 30.26 in 10.0 mi North 19.6 mph 25.3 mph N/A   Clear
5:35 PM 51.8 °F - 15.8 °F 24% 30.27 in 10.0 mi North 20.7 mph - N/A   Clear
5:55 PM 48.2 °F - 14.0 °F 25% 30.29 in 10.0 mi North 15.0 mph - N/A   Clear
6:15 PM 46.4 °F 40.4 °F 12.2 °F 25% 30.30 in 10.0 mi North 13.8 mph - N/A   Clear
6:35 PM 44.6 °F 38.8 °F 12.2 °F 27% 30.31 in 10.0 mi North 11.5 mph - N/A   Clear
6:55 PM 39.2 °F 33.0 °F 12.2 °F 33% 30.32 in 10.0 mi North 9.2 mph - N/A   Clear
7:15 PM 37.4 °F 31.4 °F 10.4 °F 33% 30.33 in 10.0 mi NNW 8.1 mph - N/A   Clear
7:35 PM 35.6 °F 29.2 °F 10.4 °F 35% 30.34 in 10.0 mi NNW 8.1 mph - N/A   Clear
7:55 PM 33.8 °F 27.0 °F 10.4 °F 38% 30.34 in 10.0 mi NNW 8.1 mph - N/A   Clear
8:15 PM 35.6 °F 27.5 °F 12.2 °F 38% 30.35 in 10.0 mi North 11.5 mph - N/A   Clear
8:35 PM 35.6 °F 28.6 °F 12.2 °F 38% 30.35 in 10.0 mi NNW 9.2 mph - N/A   Clear
8:55 PM 35.6 °F 29.2 °F 12.2 °F 38% 30.36 in 10.0 mi NW 8.1 mph - N/A   Clear
9:15 PM 32.0 °F 24.8 °F 12.2 °F 44% 30.37 in 10.0 mi NNW 8.1 mph - N/A   Clear
9:35 PM 30.2 °F 23.4 °F 10.4 °F 44% 30.38 in 10.0 mi NNW 6.9 mph - N/A   Clear
9:55 PM 28.4 °F 22.2 °F 10.4 °F 47% 30.39 in 8.0 mi WNW 5.8 mph - N/A   Clear
10:15 PM 26.6 °F 21.2 °F 10.4 °F 51% 30.40 in 9.0 mi WNW 4.6 mph - N/A   Clear
10:35 PM 28.4 °F 20.4 °F 10.4 °F 47% 30.41 in 10.0 mi West 8.1 mph - N/A   Clear
10:55 PM 26.6 °F 19.1 °F 10.4 °F 51% 30.41 in 8.0 mi WNW 6.9 mph - N/A   Clear
11:15 PM 28.4 °F 21.2 °F 12.2 °F 51% 30.42 in 8.0 mi NW 6.9 mph - N/A   Clear
11:35 PM 26.6 °F 17.5 °F 10.4 °F 51% 30.42 in 8.0 mi WNW 9.2 mph - N/A   Clear
11:55 PM 26.6 °F 16.8 °F 12.2 °F 55% 30.42 in 8.0 mi NW 10.4 mph - N/A   Clear